UAE229 OMDB-KSEA

Flight info

Callsign UAE229
Flight time N/A
Altitude 31000
Route ANVIX L223 TARDI N629 IVAKU G216 ALPOR DCT PI/N0486F330 B505 PG G325 REGET/N0482F320 N644 LEMOD/N0479F340 B362 LBA A299 POGON/K0885F340 Y927 AKALI L985 UZLOR L162 URUSU N984 RULEN T822 ALOPU/K0874F350 T793 URIRA/K0867F340 T793 SONIB T533 MUFRI/K0891F360 T533 AGATA DCT 81N030E/N0478F360 82N027E/M081F360 84N020E 86N000E 87N020W 87N040W/M082F380 DCT OVBES/N0479F380 DCT 85N100W 80N114W 75N121W/N0479F390 70N122W 65N123W 60N124W 55N124W DCT ELIDI/N0467F400 DCT KEINN/N0458F390 DCT NUTBE DCT VIXOR MARNR8
Aircraft B77L/H-SDE1E2E3FGHIJ2J3J4J5M1RWXY/LB1D1

Departure

Time 2026-04-23 04:22
Airport Dubai International Airport (OMDB)

Arrival

Time N/A
Airport Seattle–Tacoma International Airport (KSEA)
Time Latitude Longitude Altitude Speed Heading
2026-04-23 04:06 25.25057 55.35987 31 ft 0 kts 211°
2026-04-23 04:13 25.25070 55.35995 30 ft 4 kts 211°
2026-04-23 04:13 25.25093 55.36011 29 ft 4 kts 211°
2026-04-23 04:13 25.25112 55.36024 31 ft 4 kts 203°
2026-04-23 04:13 25.25136 55.36028 31 ft 4 kts 158°
2026-04-23 04:14 25.25157 55.36011 29 ft 4 kts 123°
2026-04-23 04:14 25.25170 55.35987 31 ft 4 kts 122°
2026-04-23 04:14 25.25175 55.35978 31 ft 0 kts 122°
2026-04-23 04:16 25.25154 55.36016 29 ft 16 kts 122°
2026-04-23 04:16 25.25082 55.36145 30 ft 26 kts 121°
2026-04-23 04:17 25.24991 55.36330 30 ft 27 kts 103°
2026-04-23 04:17 25.24968 55.36524 28 ft 24 kts 112°
2026-04-23 04:17 25.24888 55.36682 28 ft 23 kts 114°
2026-04-23 04:17 25.24839 55.36875 30 ft 32 kts 114°
2026-04-23 04:18 25.24695 55.37134 31 ft 45 kts 121°
2026-04-23 04:18 25.24536 55.37420 29 ft 43 kts 122°
2026-04-23 04:18 25.24385 55.37687 28 ft 39 kts 121°
2026-04-23 04:18 25.24248 55.37933 28 ft 36 kts 122°
2026-04-23 04:19 25.24120 55.38158 31 ft 33 kts 122°
2026-04-23 04:19 25.24003 55.38365 30 ft 31 kts 121°
2026-04-23 04:19 25.23895 55.38558 28 ft 28 kts 122°
2026-04-23 04:19 25.23778 55.38765 28 ft 33 kts 122°
2026-04-23 04:20 25.23659 55.38974 26 ft 31 kts 121°
2026-04-23 04:20 25.23552 55.39167 26 ft 28 kts 121°
2026-04-23 04:20 25.23452 55.39343 30 ft 26 kts 122°
2026-04-23 04:20 25.23509 55.39469 29 ft 18 kts 32°
2026-04-23 04:21 25.23604 55.39456 31 ft 15 kts 309°
2026-04-23 04:21 25.23707 55.39272 31 ft 59 kts 301°
2026-04-23 04:21 25.24052 55.38651 28 ft 128 kts 301°
2026-04-23 04:21 25.24618 55.37625 29 ft 180 kts 302°
2026-04-23 04:22 25.25296 55.36400 392 ft 190 kts 301°
2026-04-23 04:22 25.26000 55.35113 815 ft 201 kts 301°
2026-04-23 04:22 25.26776 55.33756 1137 ft 216 kts 300°
2026-04-23 04:22 25.27614 55.32427 1665 ft 213 kts 303°
2026-04-23 04:23 25.28470 55.31021 2054 ft 227 kts 302°
2026-04-23 04:23 25.29142 55.29483 2590 ft 221 kts 274°
2026-04-23 04:23 25.28896 55.27846 2982 ft 219 kts 242°
2026-04-23 04:23 25.28206 55.26309 3326 ft 229 kts 244°
2026-04-23 04:24 25.27520 55.24687 3768 ft 236 kts 245°
2026-04-23 04:24 25.26827 55.23045 4387 ft 235 kts 244°
2026-04-23 04:24 25.26133 55.21409 5025 ft 234 kts 244°
2026-04-23 04:24 25.25407 55.19791 5543 ft 237 kts 235°
2026-04-23 04:25 25.24113 55.18598 5666 ft 256 kts 198°
2026-04-23 04:25 25.22313 55.18525 6070 ft 270 kts 163°
2026-04-23 04:25 25.20657 55.19546 6563 ft 277 kts 150°
2026-04-23 04:25 25.18879 55.20301 6939 ft 276 kts 176°
2026-04-23 04:26 25.16981 55.20655 7402 ft 281 kts 161°
2026-04-23 04:26 25.15388 55.21944 7974 ft 293 kts 128°
2026-04-23 04:26 25.14537 55.24001 8609 ft 297 kts 112°
2026-04-23 04:26 25.13728 55.26124 9076 ft 303 kts 119°
2026-04-23 04:27 25.12811 55.28238 9711 ft 307 kts 119°
2026-04-23 04:27 25.11910 55.30382 10371 ft 309 kts 118°
2026-04-23 04:27 25.11027 55.32546 11050 ft 309 kts 117°
2026-04-23 04:28 25.09249 55.36886 12331 ft 313 kts 117°
2026-04-23 04:28 25.08356 55.39045 12959 ft 315 kts 117°
2026-04-23 04:28 25.07445 55.41251 13605 ft 317 kts 117°
2026-04-23 04:28 25.06547 55.43501 14028 ft 327 kts 116°
2026-04-23 04:29 25.05631 55.45891 14134 ft 348 kts 115°
2026-04-23 04:29 25.04669 55.48413 14293 ft 367 kts 115°
2026-04-23 04:29 25.03650 55.51070 14435 ft 386 kts 115°
2026-04-23 04:29 25.02577 55.53854 14692 ft 400 kts 115°
2026-04-23 04:30 25.01373 55.56650 15101 ft 407 kts 121°
2026-04-23 04:30 24.99905 55.59341 15663 ft 411 kts 123°